EW9766 Weather Reports


Display with metric or nautical units.
time (UTC)temp
F
wind
direction
speed
MPH
gust
MPH
rain 1hr
in
rain 24hr
in
rain mn
in
humidity
%
barometer
mb
20260831113034 45 163 4.0 6.0 0.00 0.00 0.00 85 1016.0
20260831111530 45 161 4.0 5.0 0.00 0.00 0.00 85 1016.0
20260831110035 45 158 4.0 5.0 0.00 0.00 0.00 85 1016.1
20260831104535 46 150 4.0 6.0 0.00 0.00 0.00 84 1016.0
20260831103034 45 146 4.0 8.0 0.00 0.00 0.00 84 1016.1
20260831101605 46 148 4.0 7.0 0.00 0.00 0.00 83 1016.2
20260831100034 46 172 4.0 5.0 0.00 0.00 0.00 83 1016.3
20260831094537 46 163 4.0 5.0 0.00 0.00 0.00 82 1016.5
20260831093029 47 165 3.0 5.0 0.00 0.00 0.00 81 1016.6
20260831091532 48 148 3.0 5.0 0.00 0.00 0.00 81 1016.6
20260831090034 48 156 4.0 9.0 0.00 0.00 0.00 80 1016.8
20260831084538 48 153 5.0 7.0 0.00 0.00 0.00 80 1016.8
20260831083036 49 154 4.0 8.0 0.00 0.00 0.00 79 1017.0
20260831080106 49 148 4.0 7.0 0.00 0.00 0.00 79 1017.2
20260831073035 50 140 4.0 6.0 0.00 0.00 0.00 77 1017.2
20260831071531 50 158 4.0 8.0 0.00 0.00 0.00 77 1017.3
20260831070032 51 161 5.0 8.0 0.00 0.00 0.00 77 1017.3
20260831063030 50 138 5.0 10.0 0.00 0.00 0.00 78 1017.5
20260831060151 50 170 5.0 8.0 0.00 0.00 0.00 77 1017.6
20260831054531 51 160 5.0 8.0 0.00 0.00 0.00 76 1017.8
20260831053035 51 155 5.0 8.0 0.00 0.00 0.00 76 1017.9
20260831051607 52 162 4.0 7.0 0.00 0.00 0.00 75 1018.0
20260831050030 52 164 5.0 8.0 0.00 0.00 0.00 75 1018.1
20260831044534 52 151 5.0 7.0 0.00 0.00 0.00 76 1018.2
20260831043030 52 147 4.0 8.0 0.00 0.00 0.00 76 1018.2
20260831041533 51 157 5.0 7.0 0.00 0.00 0.00 77 1018.3
20260831040034 51 154 4.0 6.0 0.00 0.00 0.00 77 1018.1
20260831034533 51 150 4.0 6.0 0.00 0.00 0.00 76 1018.1
20260831033034 52 136 3.0 4.0 0.00 0.00 0.00 75 1018.0
20260831031536 53 135 1.0 3.0 0.00 0.00 0.00 73 1017.9
20260831030034 54 94 1.0 3.0 0.00 0.00 0.00 71 1017.9
20260831024535 56 80 1.0 3.0 0.00 0.00 0.00 68 1017.9
20260831023031 58 20 0.0 3.0 0.00 0.00 0.00 64 1017.8
20260831021536 61 360 0.0 2.0 0.00 0.00 0.00 59 1017.9
20260831014532 64 351 3.0 7.0 0.00 0.00 0.00 53 1017.8
20260831013044 65 344 4.0 8.0 0.00 0.00 0.00 51 1018.0
20260831011604 66 330 5.0 11.0 0.00 0.00 0.00 49 1018.0
20260831010035 67 326 5.0 11.0 0.00 0.00 0.00 49 1018.0
20260831004536 67 324 5.0 9.0 0.00 0.00 0.00 47 1018.0
20260831003029 68 336 6.0 14.0 0.00 0.00 0.00 46 1017.9
20260831000034 69 343 7.0 12.0 0.00 0.00 0.00 46 1018.0
20260830233030 70 356 8.0 11.0 0.00 0.00 0.00 44 1018.1
20260830231535 70 360 7.0 14.0 0.00 0.00 0.00 44 1018.1
20260830224534 71 1 8.0 13.0 0.00 0.00 0.00 46 1018.3
20260830223043 71 8 7.0 12.0 0.00 0.00 0.00 46 1018.6
20260830221531 71 8 8.0 12.0 0.00 0.00 0.00 45 1018.8
20260830214533 70 4 7.0 13.0 0.00 0.00 0.00 45 1019.2
20260830213032 70 1 6.0 9.0 0.00 0.00 0.00 45 1019.3
20260830211535 70 335 4.0 9.0 0.00 0.00 0.00 45 1019.4
20260830210034 70 353 4.0 8.0 0.00 0.00 0.00 45 1019.4
20260830204535 70 353 4.0 11.0 0.00 0.00 0.00 46 1019.6
20260830201536 70 337 3.0 10.0 0.00 0.00 0.00 44 1019.9
20260830200036 70 317 4.0 7.0 0.00 0.00 0.00 44 1020.0
20260830194535 69 324 3.0 9.0 0.00 0.00 0.00 44 1020.1
20260830193031 68 349 3.0 9.0 0.00 0.00 0.00 45 1020.3
20260830191533 68 340 1.0 5.0 0.00 0.00 0.00 46 1020.4
20260830190033 67 6 3.0 7.0 0.00 0.00 0.00 47 1020.5
20260830184530 66 333 1.0 6.0 0.00 0.00 0.00 47 1020.7
20260830183031 66 318 2.0 6.0 0.00 0.00 0.00 49 1020.8
20260830181534 66 324 3.0 7.0 0.00 0.00 0.00 50 1020.8
20260830180144 65 345 2.0 6.0 0.00 0.00 0.00 51 1020.8
20260830174534 64 332 2.0 6.0 0.00 0.00 0.00 53 1020.8
20260830173035 59 316 2.0 6.0 0.00 0.00 0.00 60 1020.8
20260830170034 58 341 3.0 5.0 0.00 0.00 0.00 59 1021.0
20260830164533 59 41 2.0 4.0 0.00 0.00 0.00 59 1021.1
20260830163033 59 20 2.0 4.0 0.00 0.00 0.00 60 1021.3
20260830161529 59 54 2.0 4.0 0.00 0.00 0.00 60 1021.5
20260830154530 61 143 1.0 4.0 0.00 0.00 0.00 67 1021.7
20260830153032 59 157 1.0 3.0 0.00 0.00 0.00 71 1021.7
20260830151535 57 156 1.0 3.0 0.00 0.00 0.00 76 1021.7
20260830150033 54 139 3.0 6.0 0.00 0.00 0.00 79 1021.7
20260830144529 49 149 4.0 6.0 0.00 0.00 0.00 83 1021.6
20260830141535 44 144 5.0 9.0 0.00 0.00 0.00 82 1021.2
20260830140106 44 151 5.0 11.0 0.00 0.00 0.00 82 1021.1
20260830134606 44 155 4.0 9.0 0.00 0.00 0.00 82 1021.1
20260830133149 44 148 6.0 11.0 0.00 0.00 0.00 82 1021.0
20260830131530 45 142 6.0 11.0 0.00 0.00 0.00 82 1020.9
20260830130033 44 150 6.0 14.0 0.00 0.00 0.00 83 1020.9
20260830124536 44 150 6.0 12.0 0.00 0.00 0.00 83 1020.9
20260830123031 43 153 6.0 8.0 0.00 0.00 0.00 84 1020.9
20260830120031 43 155 4.0 8.0 0.00 0.00 0.00 84 1020.9